This is the latest recevied weather packets stored in our database for station/object KD5NDU-15. If no packets are shown the sender has not sent any weather packets the latest 10 day(s).
| Time | Temp. | Humidity | Pressure | Rain* | Wind** | Luminosity | Snow |
|---|---|---|---|---|---|---|---|
| 1778026157 | 21.11° C | 90% | 1006.2 hPa | 0 mm | - | 12 W/m² | - |
| 1778025861 | 21.11° C | 90% | 1006 hPa | 0 mm | - | 21 W/m² | - |
| 1778025557 | 21.11° C | 90% | 1006.1 hPa | 0 mm | - | 25 W/m² | - |
| 1778025257 | 21.11° C | 90% | 1006.2 hPa | 0 mm | - | 23 W/m² | - |
| 1778024957 | 21.11° C | 90% | 1006.2 hPa | 0 mm | - | 37 W/m² | - |
| 1778024658 | 21.11° C | 90% | 1006.4 hPa | 0 mm | - | 28 W/m² | - |
| 1778024357 | 21.11° C | 90% | 1006.6 hPa | 0 mm | - | 23 W/m² | - |
| 1778024057 | 21.11° C | 90% | 1006.7 hPa | 0 mm | - | 28 W/m² | - |
| 1778023757 | 21.11° C | 90% | 1006.8 hPa | 0 mm | - | 47 W/m² | - |
| 1778023457 | 21.11° C | 90% | 1007 hPa | 0 mm | - | 46 W/m² | - |
| 1778023157 | 21.11° C | 89% | 1006.9 hPa | 0 mm | - | 62 W/m² | - |
| 1778022857 | 21.11° C | 89% | 1006.9 hPa | 0 mm | - | 77 W/m² | - |
| 1778022559 | 21.11° C | 89% | 1006.9 hPa | 0 mm | - | 70 W/m² | - |
| 1778022258 | 21.11° C | 89% | 1007 hPa | 0 mm | - | 81 W/m² | - |
| 1778021960 | 21.11° C | 89% | 1007.1 hPa | 0 mm | - | 98 W/m² | - |
| 1778021657 | 21.11° C | 89% | 1006.9 hPa | 0 mm | - | 142 W/m² | - |
| 1778021357 | 21.11° C | 89% | 1007 hPa | 0 mm | - | 63 W/m² | - |
| 1778021057 | 21.11° C | 89% | 1007 hPa | 0 mm | - | 56 W/m² | - |
| 1778020757 | 21.11° C | 89% | 1007.1 hPa | 0 mm | - | 84 W/m² | - |
| 1778020458 | 21.11° C | 89% | 1007.1 hPa | 0 mm | - | 121 W/m² | - |
| 1778020158 | 21.11° C | 89% | 1007.1 hPa | 0 mm | - | 142 W/m² | - |
| 1778019857 | 21.11° C | 90% | 1007.1 hPa | 0 mm | - | 163 W/m² | - |
| 1778019558 | 20.56° C | 90% | 1007.1 hPa | 0 mm | - | 144 W/m² | - |
| 1778019257 | 21.11° C | 90% | 1007.2 hPa | 0 mm | - | 97 W/m² | - |
| 1778018957 | 21.11° C | 89% | 1007.4 hPa | 0 mm | - | 40 W/m² | - |
* Rain latest hour (hover to see other rain measurements)
** Current wind speed in m/s (hover to see current wind gust speed)